Anchorage, AK

6:35 AM AKST on February 14, 2016 (GMT -0900)
Merrill

Weather History for PAMR - May, 2014

Change the Weather History Date:

Sunday, May 18, 2014

  Actual Average Record
Temperature  
Mean Temperature 56 °F -  
Max Temperature 64 °F 56 °F 72 °F (2002)
Min Temperature 48 °F 39 °F 26 °F (2013)
Degree Days  
Heating Degree Days 10    
Growing Degree Days 6 (Base 50)    
Moisture  
Dew Point 26 °F    
Average Humidity 31    
Maximum Humidity 47    
Minimum Humidity 24    
Precipitation  
Precipitation 0.00 in - - ()
Sea Level Pressure  
Sea Level Pressure 29.79 in    
Wind  
Wind Speed 7 mph (North)    
Max Wind Speed 18 mph    
Max Gust Speed 25 mph    
Visibility 10 miles    
Events      
Averages and records for this station are not official NWS values.
T = Trace of Precipitation, MM = Missing Value Source: NWS Daily Summary

Daily Weather History Graph

Daily Weather History Graph

Search for Another Location

Airport or City:

Trip Planner

Search our weather history database for the weather conditions in past years. The results will help you decide how hot, cold, wet, or windy it might be!

Date:

Astronomy

May. 18, 2014 Rise Set
Actual Time 5:04 AM AKDT 10:49 PM AKDT
Civil Twilight 3:50 AM AKDT 12:04 AM AKDT
Nautical Twilight Sun does not rise Sun does not rise
Astronomical Twilight Sun does not rise Sun does not rise
Moon 1:41 AM AKDT (5/18) 9:22 AM AKDT (5/18)
Length of Visible Light 20h 14m
Length of Day
17h 44m
Waning Gibbous, 79% of the Moon is Illuminated
May 18
Waning Gibbous
May 21
Last Quarter
May 28
New
Jun 5
First Quarter
Jun 12
Full

Hourly Weather History & Observations

Time (AKDT) Temp. Dew Point Humidity Pressure Visibility Wind Dir Wind Speed Gust Speed Precip Events Conditions
12:53 AM 57.9 °F 37.9 °F 47% 29.85 in 10.0 mi North 4.6 mph - N/A   Scattered Clouds
1:53 AM 60.1 °F 32.0 °F 35% 29.84 in 10.0 mi North 5.8 mph - N/A   Partly Cloudy
2:53 AM 60.1 °F 32.0 °F 35% 29.84 in 10.0 mi North 4.6 mph - N/A   Mostly Cloudy
3:53 AM 59.0 °F 30.9 °F 35% 29.84 in 10.0 mi NNE 8.1 mph - N/A   Mostly Cloudy
4:53 AM 57.0 °F 30.0 °F 36% 29.84 in 10.0 mi NNE 6.9 mph - N/A   Overcast
5:53 AM 55.9 °F 28.9 °F 36% 29.83 in 10.0 mi North 8.1 mph 16.1 mph N/A   Overcast
6:53 AM 55.0 °F 27.0 °F 34% 29.84 in 10.0 mi North 9.2 mph - N/A   Mostly Cloudy
7:53 AM 55.9 °F 28.0 °F 34% 29.84 in 10.0 mi North 6.9 mph - N/A   Mostly Cloudy
8:53 AM 54.0 °F 24.1 °F 31% 29.84 in 10.0 mi NNW 6.9 mph 17.3 mph N/A   Partly Cloudy
9:53 AM 55.9 °F 25.0 °F 30% 29.83 in 10.0 mi North 4.6 mph - N/A   Clear
10:53 AM 57.0 °F 24.1 °F 28% 29.82 in 10.0 mi NNW 5.8 mph - N/A   Mostly Cloudy
11:53 AM 59.0 °F 24.1 °F 26% 29.81 in 10.0 mi Variable 5.8 mph - N/A   Scattered Clouds
12:53 PM 61.0 °F 26.1 °F 26% 29.79 in 10.0 mi Variable 5.8 mph - N/A   Clear
1:53 PM 62.1 °F 25.0 °F 24% 29.78 in 10.0 mi NNW 8.1 mph - N/A   Clear
2:53 PM 63.0 °F 27.0 °F 26% 29.76 in 10.0 mi NNW 6.9 mph - N/A   Clear
3:28 PM 62.6 °F 24.8 °F 24% 29.75 in 10.0 mi NW 11.5 mph - N/A   Clear
3:53 PM 63.0 °F 25.0 °F 24% 29.75 in 10.0 mi NW 10.4 mph 17.3 mph N/A   Clear
4:53 PM 63.0 °F 25.0 °F 24% 29.74 in 10.0 mi NW 10.4 mph 18.4 mph N/A   Scattered Clouds
5:53 PM 62.1 °F 25.0 °F 24% 29.73 in 10.0 mi NNW 13.8 mph 17.3 mph N/A   Scattered Clouds
6:53 PM 61.0 °F 25.0 °F 25% 29.73 in 10.0 mi North 15.0 mph 20.7 mph N/A   Clear
7:53 PM 57.0 °F 24.1 °F 28% 29.74 in 9.0 mi NW 12.7 mph 23.0 mph N/A   Scattered Clouds
8:53 PM 55.9 °F 23.0 °F 28% 29.75 in 10.0 mi NNW 18.4 mph 25.3 mph N/A   Scattered Clouds
9:53 PM 52.0 °F 21.9 °F 31% 29.75 in 9.0 mi NNW 13.8 mph 20.7 mph N/A   Scattered Clouds
10:53 PM 48.9 °F 21.9 °F 35% 29.78 in 10.0 mi NNE 8.1 mph - N/A   Scattered Clouds
11:53 PM 48.0 °F 23.0 °F 37% 29.78 in 10.0 mi North 5.8 mph - N/A   Mostly Cloudy